Time,TemperatureF,DewpointF,PressureIn,WindDirection,WindDirectionDegrees,WindSpeedMPH,WindSpeedGustMPH,Humidity,HourlyPrecipIn,Conditions,Clouds,dailyrainin,SoftwareType,DateUTC
2013-04-11 00:00:00,59.4,55.9,30.03,WNW,293,0.0,0.7,88,0.09,,,0.24,WUHU216HW,2013-04-11 04:00:00,
2013-04-11 00:05:00,59.4,55.9,30.04,WNW,293,0.0,0.7,88,0.05,,,0.00,WUHU216HW,2013-04-11 04:05:00,
2013-04-11 00:10:00,59.4,55.9,30.03,SSW,203,1.1,1.1,88,0.04,,,0.01,WUHU216HW,2013-04-11 04:10:00,
2013-04-11 00:15:00,59.4,55.9,30.03,South,180,1.3,1.8,88,0.04,,,0.01,WUHU216HW,2013-04-11 04:15:00,
2013-04-11 00:20:00,59.4,55.9,30.02,SSE,158,2.5,2.5,88,0.03,,,0.01,WUHU216HW,2013-04-11 04:20:00,
2013-04-11 00:25:00,59.4,55.9,30.01,SSE,158,1.8,3.4,88,0.05,,,0.03,WUHU216HW,2013-04-11 04:25:00,
2013-04-11 00:30:00,59.4,56.2,30.03,SW,225,4.0,4.0,89,0.06,,,0.04,WUHU216HW,2013-04-11 04:30:00,
2013-04-11 00:35:00,59.4,56.2,29.99,SE,135,2.7,4.0,89,0.05,,,0.04,WUHU216HW,2013-04-11 04:35:00,
2013-04-11 00:40:00,59.2,56.0,30.02,SW,225,2.2,4.0,89,0.05,,,0.04,WUHU216HW,2013-04-11 04:40:00,
2013-04-11 00:45:00,59.2,56.0,30.01,South,180,1.6,2.2,89,0.04,,,0.04,WUHU216HW,2013-04-11 04:45:00,
2013-04-11 00:51:00,59.0,55.8,30.01,SSE,158,0.4,2.9,89,0.04,,,0.04,WUHU216HW,2013-04-11 04:51:00,
2013-04-11 00:56:00,59.0,55.8,30.01,SE,135,0.7,2.9,89,0.04,,,0.04,WUHU216HW,2013-04-11 04:56:00,
2013-04-11 01:01:00,59.0,55.8,30.02,SSE,158,0.9,1.1,89,0.04,,,0.04,WUHU216HW,2013-04-11 05:01:00,
2013-04-11 01:06:00,59.0,55.8,30.04,WSW,248,1.3,1.3,89,0.03,,,0.04,WUHU216HW,2013-04-11 05:06:00,
2013-04-11 01:11:00,58.9,55.6,30.04,SW,225,2.7,3.1,89,0.03,,,0.04,WUHU216HW,2013-04-11 05:11:00,
2013-04-11 01:16:00,59.0,55.8,30.03,WSW,248,0.9,3.1,89,0.04,,,0.05,WUHU216HW,2013-04-11 05:16:00,
2013-04-11 01:21:00,59.0,55.8,30.01,SSE,158,0.7,2.7,89,0.03,,,0.05,WUHU216HW,2013-04-11 05:21:00,
2013-04-11 01:26:00,59.0,55.8,30.00,SSE,158,0.0,0.7,89,0.01,,,0.05,WUHU216HW,2013-04-11 05:26:00,
2013-04-11 01:31:00,59.0,55.8,30.00,SSE,158,0.4,0.7,89,0.01,,,0.05,WUHU216HW,2013-04-11 05:31:00,
2013-04-11 01:36:00,58.9,55.6,29.99,SSE,158,0.0,0.4,89,0.01,,,0.05,WUHU216HW,2013-04-11 05:36:00,
2013-04-11 01:41:00,58.9,56.0,29.98,SSE,158,0.0,0.4,90,0.01,,,0.05,WUHU216HW,2013-04-11 05:41:00,
2013-04-11 01:46:00,58.9,56.0,29.97,SSE,158,0.4,0.4,90,0.01,,,0.05,WUHU216HW,2013-04-11 05:46:00,
2013-04-11 01:51:00,58.7,55.8,29.97,SSE,158,0.0,0.4,90,0.01,,,0.05,WUHU216HW,2013-04-11 05:51:00,
2013-04-11 01:56:00,58.7,55.8,29.98,SSE,158,1.1,1.1,90,0.01,,,0.05,WUHU216HW,2013-04-11 05:56:00,
2013-04-11 02:03:00,58.5,55.6,29.98,SSE,158,1.1,1.1,90,0.01,,,0.05,WUHU216HW,2013-04-11 06:03:00,
2013-04-11 02:08:00,58.5,55.6,29.98,SSE,158,0.7,1.1,90,0.01,,,0.05,WUHU216HW,2013-04-11 06:08:00,
2013-04-11 02:13:00,58.5,55.6,29.97,SSE,158,0.0,1.1,90,0.00,,,0.05,WUHU216HW,2013-04-11 06:13:00,
2013-04-11 02:18:00,58.5,55.6,29.97,SSE,158,0.4,0.7,90,0.00,,,0.05,WUHU216HW,2013-04-11 06:18:00,
2013-04-11 02:24:00,58.5,55.6,29.96,SSE,158,0.7,0.7,90,0.00,,,0.05,WUHU216HW,2013-04-11 06:24:00,
2013-04-11 02:29:00,58.5,55.6,29.96,SSE,158,0.0,0.7,90,0.00,,,0.05,WUHU216HW,2013-04-11 06:29:00,
2013-04-11 02:34:00,58.3,55.4,29.95,SSE,158,0.0,1.1,90,0.00,,,0.05,WUHU216HW,2013-04-11 06:34:00,
2013-04-11 02:39:00,58.3,55.4,29.95,SSE,158,0.0,1.1,90,0.00,,,0.05,WUHU216HW,2013-04-11 06:39:00,
2013-04-11 02:45:00,58.3,55.4,29.94,SSE,158,0.4,0.4,90,0.00,,,0.05,WUHU216HW,2013-04-11 06:45:00,
2013-04-11 02:50:00,58.3,55.4,29.93,SSE,158,0.4,0.4,90,0.00,,,0.05,WUHU216HW,2013-04-11 06:50:00,
2013-04-11 02:55:00,58.3,55.4,29.93,South,180,0.9,1.1,90,0.00,,,0.05,WUHU216HW,2013-04-11 06:55:00,
2013-04-11 03:00:00,58.3,55.4,29.93,South,180,0.0,1.1,90,0.00,,,0.05,WUHU216HW,2013-04-11 07:00:00,
2013-04-11 03:05:00,58.3,55.4,29.93,South,180,0.0,0.9,90,0.00,,,0.05,WUHU216HW,2013-04-11 07:05:00,
2013-04-11 03:10:00,58.3,55.4,29.92,SE,135,1.1,1.1,90,0.00,,,0.05,WUHU216HW,2013-04-11 07:10:00,
2013-04-11 03:15:00,58.5,55.6,29.92,SE,135,1.3,1.3,90,0.00,,,0.05,WUHU216HW,2013-04-11 07:15:00,
2013-04-11 03:20:00,58.5,55.9,29.91,SSE,158,1.3,1.3,91,0.00,,,0.05,WUHU216HW,2013-04-11 07:20:00,
2013-04-11 03:25:00,58.7,56.1,29.91,SSE,158,0.9,2.5,91,0.00,,,0.05,WUHU216HW,2013-04-11 07:25:00,
2013-04-11 03:30:00,58.7,55.8,29.91,SSW,203,1.3,2.5,90,0.00,,,0.05,WUHU216HW,2013-04-11 07:30:00,
2013-04-11 03:35:00,58.7,55.8,29.92,SSW,203,1.1,1.3,90,0.00,,,0.05,WUHU216HW,2013-04-11 07:35:00,
2013-04-11 03:40:00,58.7,55.8,29.92,SW,225,1.1,1.3,90,0.00,,,0.05,WUHU216HW,2013-04-11 07:40:00,
2013-04-11 03:45:00,58.7,55.8,29.92,SW,225,1.3,1.3,90,0.00,,,0.05,WUHU216HW,2013-04-11 07:45:00,
2013-04-11 03:50:00,58.7,55.8,29.93,SE,135,1.1,1.3,90,0.00,,,0.05,WUHU216HW,2013-04-11 07:50:00,
2013-04-11 03:55:00,58.9,56.0,29.94,North,0,1.1,1.6,90,0.00,,,0.05,WUHU216HW,2013-04-11 07:55:00,
2013-04-11 04:00:00,58.9,56.0,29.94,NNW,338,0.7,1.6,90,0.00,,,0.05,WUHU216HW,2013-04-11 08:00:00,
2013-04-11 04:05:00,58.9,56.0,29.94,NNW,338,0.0,1.1,90,0.00,,,0.05,WUHU216HW,2013-04-11 08:05:00,
2013-04-11 04:10:00,58.9,56.0,29.95,NNW,338,1.1,1.1,90,0.00,,,0.05,WUHU216HW,2013-04-11 08:10:00,
2013-04-11 04:15:00,58.9,56.3,29.96,NNW,338,0.0,1.8,91,0.00,,,0.05,WUHU216HW,2013-04-11 08:15:00,
2013-04-11 04:20:00,58.7,56.1,29.96,NNW,338,0.0,1.8,91,0.00,,,0.05,WUHU216HW,2013-04-11 08:20:00,
2013-04-11 04:25:00,58.7,56.1,29.97,NNW,338,0.0,0.0,91,0.00,,,0.05,WUHU216HW,2013-04-11 08:25:00,
2013-04-11 04:30:00,58.7,55.8,29.97,NNW,338,0.0,0.0,90,0.00,,,0.05,WUHU216HW,2013-04-11 08:30:00,
2013-04-11 04:35:00,58.7,56.1,29.97,NNW,338,0.0,0.7,91,0.00,,,0.05,WUHU216HW,2013-04-11 08:35:00,
2013-04-11 04:40:00,58.5,55.9,29.97,NNW,338,0.0,0.7,91,0.00,,,0.05,WUHU216HW,2013-04-11 08:40:00,
2013-04-11 04:45:00,58.5,55.9,29.97,SSW,203,0.9,1.3,91,0.00,,,0.05,WUHU216HW,2013-04-11 08:45:00,
2013-04-11 04:50:00,58.5,55.9,29.97,SSW,203,0.2,1.3,91,0.00,,,0.05,WUHU216HW,2013-04-11 08:50:00,
2013-04-11 04:55:00,58.3,55.4,29.97,SSW,203,0.0,0.9,90,0.00,,,0.05,WUHU216HW,2013-04-11 08:55:00,
2013-04-11 05:00:00,58.3,55.4,29.98,SSW,203,0.0,0.2,90,0.00,,,0.05,WUHU216HW,2013-04-11 09:00:00,
2013-04-11 05:05:00,58.3,55.4,29.98,SSW,203,0.0,0.0,90,0.00,,,0.05,WUHU216HW,2013-04-11 09:05:00,
2013-04-11 05:10:00,58.1,55.3,29.98,SSW,203,0.0,0.0,90,0.00,,,0.05,WUHU216HW,2013-04-11 09:10:00,
2013-04-11 05:15:00,58.1,55.3,29.98,SSW,203,0.0,0.0,90,0.00,,,0.05,WUHU216HW,2013-04-11 09:15:00,
2013-04-11 05:39:00,58.0,55.1,30.00,SSW,203,1.1,1.1,90,0.00,,,0.05,WUHU216HW,2013-04-11 09:39:00,
2013-04-11 05:44:00,57.8,54.9,30.00,SSW,203,0.0,1.1,90,0.00,,,0.05,WUHU216HW,2013-04-11 09:44:00,
2013-04-11 05:49:00,57.8,54.9,30.00,SSW,203,0.4,1.1,90,0.00,,,0.05,WUHU216HW,2013-04-11 09:49:00,
2013-04-11 05:54:00,57.8,54.9,30.00,SSW,203,0.0,0.7,90,0.00,,,0.05,WUHU216HW,2013-04-11 09:54:00,
2013-04-11 05:59:00,57.6,54.7,30.00,SSW,203,0.0,0.0,90,0.00,,,0.05,WUHU216HW,2013-04-11 09:59:00,
2013-04-11 06:04:00,57.4,54.5,30.00,South,180,0.2,1.1,90,0.00,,,0.05,WUHU216HW,2013-04-11 10:04:00,
2013-04-11 06:09:00,57.4,54.5,30.01,South,180,0.7,1.1,90,0.00,,,0.05,WUHU216HW,2013-04-11 10:09:00,
2013-04-11 06:14:00,57.2,54.4,30.01,South,180,0.4,0.7,90,0.00,,,0.05,WUHU216HW,2013-04-11 10:14:00,
2013-04-11 06:20:00,57.2,54.4,30.01,South,180,0.4,0.7,90,0.00,,,0.05,WUHU216HW,2013-04-11 10:20:00,
2013-04-11 06:25:00,57.2,54.4,30.01,South,180,0.0,0.4,90,0.00,,,0.05,WUHU216HW,2013-04-11 10:25:00,
2013-04-11 06:30:00,57.1,54.2,30.02,South,180,0.4,0.4,90,0.00,,,0.05,WUHU216HW,2013-04-11 10:30:00,
2013-04-11 06:35:00,56.9,54.0,30.02,South,180,0.0,0.4,90,0.00,,,0.05,WUHU216HW,2013-04-11 10:35:00,
2013-04-11 06:40:00,56.9,54.0,30.02,South,180,0.0,0.4,90,0.00,,,0.05,WUHU216HW,2013-04-11 10:40:00,
2013-04-11 06:45:00,56.9,54.0,30.02,South,180,0.4,0.7,90,0.00,,,0.05,WUHU216HW,2013-04-11 10:45:00,
2013-04-11 06:50:00,56.7,53.8,30.03,South,180,0.0,0.7,90,0.00,,,0.05,WUHU216HW,2013-04-11 10:50:00,
2013-04-11 06:55:00,56.5,53.6,30.03,South,180,0.0,0.4,90,0.00,,,0.05,WUHU216HW,2013-04-11 10:55:00,
2013-04-11 07:00:00,56.7,53.8,30.04,South,180,0.0,0.0,90,0.00,,,0.05,WUHU216HW,2013-04-11 11:00:00,
2013-04-11 07:05:00,56.7,53.8,30.03,South,180,0.0,0.0,90,0.00,,,0.05,WUHU216HW,2013-04-11 11:05:00,
2013-04-11 07:10:00,56.7,53.8,30.04,South,180,0.0,0.0,90,0.00,,,0.05,WUHU216HW,2013-04-11 11:10:00,
2013-04-11 07:30:00,57.2,54.6,30.05,North,0,0.4,0.4,91,0.00,,,0.05,WUHU216HW,2013-04-11 11:30:00,
2013-04-11 07:35:00,57.4,54.8,30.04,North,0,0.0,0.4,91,0.00,,,0.05,WUHU216HW,2013-04-11 11:35:00,
2013-04-11 07:40:00,57.6,55.0,30.04,NNE,23,0.4,0.4,91,0.00,,,0.05,WUHU216HW,2013-04-11 11:40:00,
2013-04-11 07:45:00,57.8,55.2,30.04,NNE,23,0.9,0.9,91,0.00,,,0.05,WUHU216HW,2013-04-11 11:45:00,
2013-04-11 07:50:00,58.1,55.5,30.04,East,90,0.9,1.3,91,0.00,,,0.05,WUHU216HW,2013-04-11 11:50:00,
2013-04-11 07:55:00,58.5,55.9,30.04,ESE,113,1.1,1.3,91,0.00,,,0.05,WUHU216HW,2013-04-11 11:55:00,
2013-04-11 08:00:00,58.5,55.9,30.04,SSE,158,2.5,2.5,91,0.00,,,0.05,WUHU216HW,2013-04-11 12:00:00,
2013-04-11 08:05:00,58.7,56.1,30.04,ESE,113,1.1,2.5,91,0.00,,,0.05,WUHU216HW,2013-04-11 12:05:00,
2013-04-11 08:10:00,58.7,55.8,30.04,ENE,68,0.9,1.8,90,0.00,,,0.05,WUHU216HW,2013-04-11 12:10:00,
2013-04-11 08:15:00,58.3,55.4,30.05,ESE,113,0.7,3.1,90,0.00,,,0.05,WUHU216HW,2013-04-11 12:15:00,
2013-04-11 08:20:00,58.3,55.4,30.05,ESE,113,0.7,3.1,90,0.00,,,0.05,WUHU216HW,2013-04-11 12:20:00,
2013-04-11 08:43:00,57.2,54.4,30.05,ENE,68,2.2,2.2,90,0.00,,,0.05,WUHU216HW,2013-04-11 12:43:00,
2013-04-11 08:48:00,57.4,54.5,30.05,NE,45,4.7,4.7,90,0.00,,,0.05,WUHU216HW,2013-04-11 12:48:00,
2013-04-11 08:53:00,57.4,54.5,30.04,ENE,68,5.8,5.8,90,0.00,,,0.05,WUHU216HW,2013-04-11 12:53:00,
2013-04-11 08:58:00,57.6,54.7,30.04,NNE,23,2.7,5.8,90,0.00,,,0.05,WUHU216HW,2013-04-11 12:58:00,
2013-04-11 09:03:00,57.6,54.7,30.04,NNE,23,4.0,5.1,90,0.00,,,0.05,WUHU216HW,2013-04-11 13:03:00,
2013-04-11 09:08:00,57.6,54.7,30.04,East,90,1.3,5.1,90,0.00,,,0.05,WUHU216HW,2013-04-11 13:08:00,
2013-04-11 09:13:00,57.6,54.4,30.04,NE,45,1.1,4.0,89,0.00,,,0.05,WUHU216HW,2013-04-11 13:13:00,
2013-04-11 09:18:00,57.8,54.5,30.05,North,0,6.0,7.6,89,0.00,,,0.05,WUHU216HW,2013-04-11 13:18:00,
2013-04-11 09:23:00,57.8,54.5,30.05,NNE,23,5.8,7.6,89,0.00,,,0.05,WUHU216HW,2013-04-11 13:23:00,
2013-04-11 09:28:00,57.6,54.4,30.05,NNE,23,4.3,5.8,89,0.00,,,0.05,WUHU216HW,2013-04-11 13:28:00,
2013-04-11 09:33:00,57.4,54.2,30.05,NE,45,5.1,5.8,89,0.00,,,0.05,WUHU216HW,2013-04-11 13:33:00,
2013-04-11 09:38:00,57.2,54.0,30.06,NE,45,6.3,6.3,89,0.00,,,0.05,WUHU216HW,2013-04-11 13:38:00,
2013-04-11 09:43:00,57.1,53.8,30.06,ENE,68,2.2,6.3,89,0.00,,,0.05,WUHU216HW,2013-04-11 13:43:00,
2013-04-11 09:48:00,57.1,53.8,30.06,ENE,68,2.2,6.3,89,0.00,,,0.05,WUHU216HW,2013-04-11 13:48:00,
2013-04-11 09:59:00,56.7,53.5,30.06,NNE,23,6.5,6.5,89,0.00,,,0.05,WUHU216HW,2013-04-11 13:59:00,
2013-04-11 10:05:00,56.7,53.5,30.06,East,90,2.9,6.5,89,0.00,,,0.05,WUHU216HW,2013-04-11 14:05:00,
2013-04-11 10:10:00,56.5,53.3,30.07,North,0,2.9,3.4,89,0.00,,,0.05,WUHU216HW,2013-04-11 14:10:00,
2013-04-11 10:15:00,56.3,53.1,30.07,NE,45,6.9,6.9,89,0.00,,,0.05,WUHU216HW,2013-04-11 14:15:00,
2013-04-11 10:20:00,56.3,53.1,30.08,ENE,68,6.9,6.9,89,0.00,,,0.05,WUHU216HW,2013-04-11 14:20:00,
2013-04-11 10:25:00,56.3,53.1,30.08,East,90,4.7,6.9,89,0.00,,,0.05,WUHU216HW,2013-04-11 14:25:00,
2013-04-11 10:30:00,56.2,52.7,30.08,NNE,23,4.7,9.2,88,0.00,,,0.05,WUHU216HW,2013-04-11 14:30:00,
2013-04-11 10:35:00,56.0,52.5,30.08,East,90,3.6,9.2,88,0.00,,,0.05,WUHU216HW,2013-04-11 14:35:00,
2013-04-11 10:40:00,56.0,52.7,30.08,ENE,68,6.5,6.5,89,0.00,,,0.05,WUHU216HW,2013-04-11 14:40:00,
2013-04-11 10:45:00,56.0,52.5,30.08,ENE,68,5.6,6.5,88,0.00,,,0.05,WUHU216HW,2013-04-11 14:45:00,
2013-04-11 10:50:00,56.0,52.5,30.08,ENE,68,1.6,8.9,88,0.00,,,0.05,WUHU216HW,2013-04-11 14:50:00,
2013-04-11 10:55:00,56.0,52.5,30.08,NE,45,6.3,8.9,88,0.00,,,0.05,WUHU216HW,2013-04-11 14:55:00,
2013-04-11 11:02:00,56.0,52.5,30.09,NNE,23,4.9,6.3,88,0.00,,,0.05,WUHU216HW,2013-04-11 15:02:00,
2013-04-11 11:07:00,56.2,52.3,30.09,ESE,113,5.1,5.1,87,0.00,,,0.05,WUHU216HW,2013-04-11 15:07:00,
2013-04-11 11:12:00,56.5,52.7,30.09,NE,45,2.5,5.1,87,0.00,,,0.05,WUHU216HW,2013-04-11 15:12:00,
2013-04-11 11:17:00,56.5,52.7,30.10,ENE,68,5.4,5.4,87,0.00,,,0.05,WUHU216HW,2013-04-11 15:17:00,
2013-04-11 11:22:00,56.5,52.4,30.10,ENE,68,5.8,5.8,86,0.00,,,0.05,WUHU216HW,2013-04-11 15:22:00,
2013-04-11 11:27:00,56.5,52.4,30.10,NNE,23,2.2,5.8,86,0.00,,,0.05,WUHU216HW,2013-04-11 15:27:00,
2013-04-11 11:32:00,56.5,52.4,30.10,ENE,68,1.1,4.0,86,0.00,,,0.05,WUHU216HW,2013-04-11 15:32:00,
2013-04-11 11:37:00,56.5,52.0,30.10,SE,135,4.0,4.0,85,0.00,,,0.05,WUHU216HW,2013-04-11 15:37:00,
2013-04-11 11:42:00,56.5,52.0,30.10,NNE,23,0.9,4.0,85,0.00,,,0.05,WUHU216HW,2013-04-11 15:42:00,
2013-04-11 11:47:00,56.5,52.0,30.10,ENE,68,2.0,2.0,85,0.00,,,0.05,WUHU216HW,2013-04-11 15:47:00,
2013-04-11 11:52:00,56.3,51.8,30.10,East,90,2.7,4.3,85,0.00,,,0.05,WUHU216HW,2013-04-11 15:52:00,
2013-04-11 11:57:00,56.3,51.8,30.10,ENE,68,2.0,4.3,85,0.00,,,0.05,WUHU216HW,2013-04-11 15:57:00,
2013-04-11 12:02:00,56.3,51.5,30.10,SE,135,1.8,4.0,84,0.00,,,0.05,WUHU216HW,2013-04-11 16:02:00,
2013-04-11 12:07:00,56.3,51.5,30.10,NNE,23,1.3,4.0,84,0.00,,,0.05,WUHU216HW,2013-04-11 16:07:00,
2013-04-11 12:13:00,56.3,51.5,30.10,NNE,23,1.3,1.3,84,0.00,,,0.05,WUHU216HW,2013-04-11 16:13:00,
2013-04-11 12:34:00,56.9,52.0,30.10,ESE,113,2.5,2.5,84,0.00,,,0.05,WUHU216HW,2013-04-11 16:34:00,
2013-04-11 12:39:00,56.9,52.0,30.10,East,90,0.4,2.5,84,0.00,,,0.05,WUHU216HW,2013-04-11 16:39:00,
2013-04-11 12:44:00,57.1,52.2,30.10,East,90,2.7,3.8,84,0.00,,,0.05,WUHU216HW,2013-04-11 16:44:00,
2013-04-11 12:49:00,57.6,52.5,30.10,NE,45,2.5,5.1,83,0.00,,,0.05,WUHU216HW,2013-04-11 16:49:00,
2013-04-11 12:54:00,58.0,52.8,30.10,ESE,113,2.7,5.1,83,0.00,,,0.05,WUHU216HW,2013-04-11 16:54:00,
2013-04-11 12:59:00,58.5,53.4,30.10,SE,135,1.8,2.7,83,0.00,,,0.05,WUHU216HW,2013-04-11 16:59:00,
2013-04-11 13:04:00,58.7,53.6,30.10,ENE,68,2.5,5.6,83,0.00,,,0.05,WUHU216HW,2013-04-11 17:04:00,
2013-04-11 13:09:00,58.9,53.4,30.09,ENE,68,4.0,5.6,82,0.00,,,0.05,WUHU216HW,2013-04-11 17:09:00,
2013-04-11 13:14:00,58.9,53.1,30.09,NE,45,2.0,4.0,81,0.00,,,0.05,WUHU216HW,2013-04-11 17:14:00,
2013-04-11 13:19:00,58.9,53.1,30.09,ENE,68,1.8,4.0,81,0.00,,,0.05,WUHU216HW,2013-04-11 17:19:00,
2013-04-11 13:24:00,59.2,53.5,30.10,ESE,113,6.9,6.9,81,0.00,,,0.05,WUHU216HW,2013-04-11 17:24:00,
2013-04-11 13:29:00,59.2,53.1,30.09,East,90,2.5,6.9,80,0.00,,,0.05,WUHU216HW,2013-04-11 17:29:00,
2013-04-11 13:34:00,59.4,53.3,30.10,North,0,2.5,6.9,80,0.00,,,0.05,WUHU216HW,2013-04-11 17:34:00,
2013-04-11 13:39:00,59.4,53.3,30.10,North,0,2.5,4.0,80,0.00,,,0.05,WUHU216HW,2013-04-11 17:39:00,
2013-04-11 13:44:00,59.4,53.3,30.10,North,0,2.5,2.5,80,0.00,,,0.05,WUHU216HW,2013-04-11 17:44:00,
2013-04-11 14:00:00,60.7,53.5,30.10,ESE,113,3.1,3.1,77,0.00,,,0.05,WUHU216HW,2013-04-11 18:00:00,
2013-04-11 14:05:00,60.7,53.5,30.10,East,90,3.6,4.5,77,0.00,,,0.05,WUHU216HW,2013-04-11 18:05:00,
2013-04-11 14:10:00,61.2,53.7,30.11,ENE,68,2.0,4.5,76,0.00,,,0.05,WUHU216HW,2013-04-11 18:10:00,
2013-04-11 14:15:00,61.4,53.7,30.10,ENE,68,2.5,3.6,76,0.00,,,0.05,WUHU216HW,2013-04-11 18:15:00,
2013-04-11 14:20:00,61.4,53.7,30.10,East,90,3.1,3.1,76,0.00,,,0.05,WUHU216HW,2013-04-11 18:20:00,
2013-04-11 14:25:00,61.7,53.7,30.11,ESE,113,5.4,5.4,75,0.00,,,0.05,WUHU216HW,2013-04-11 18:25:00,
2013-04-11 14:30:00,61.6,53.6,30.11,ENE,68,9.4,9.4,75,0.00,,,0.05,WUHU216HW,2013-04-11 18:30:00,
2013-04-11 14:35:00,61.4,53.0,30.11,NE,45,0.7,9.4,74,0.00,,,0.05,WUHU216HW,2013-04-11 18:35:00,
2013-04-11 14:40:00,61.6,53.6,30.10,North,0,4.7,4.7,75,0.00,,,0.05,WUHU216HW,2013-04-11 18:40:00,
2013-04-11 14:45:00,61.7,53.4,30.10,East,90,3.6,4.7,74,0.00,,,0.05,WUHU216HW,2013-04-11 18:45:00,
2013-04-11 14:50:00,61.9,53.6,30.10,SE,135,3.1,3.6,74,0.00,,,0.05,WUHU216HW,2013-04-11 18:50:00,
2013-04-11 14:55:00,62.3,53.8,30.10,SE,135,3.4,5.1,74,0.00,,,0.05,WUHU216HW,2013-04-11 18:55:00,
2013-04-11 15:00:00,62.1,53.4,30.09,NE,45,5.1,5.1,73,0.00,,,0.05,WUHU216HW,2013-04-11 19:00:00,
2013-04-11 15:05:00,61.9,53.2,30.09,ESE,113,2.0,5.1,73,0.00,,,0.05,WUHU216HW,2013-04-11 19:05:00,
2013-04-11 15:10:00,61.7,53.0,30.09,East,90,6.3,6.3,73,0.00,,,0.05,WUHU216HW,2013-04-11 19:10:00,
2013-04-11 15:15:00,61.6,52.8,30.09,NNE,23,5.8,6.3,73,0.00,,,0.05,WUHU216HW,2013-04-11 19:15:00,
2013-04-11 15:20:00,61.2,52.6,30.09,ESE,113,2.2,5.8,73,0.00,,,0.05,WUHU216HW,2013-04-11 19:20:00,
2013-04-11 15:25:00,61.6,52.8,30.08,East,90,2.5,2.5,73,0.00,,,0.05,WUHU216HW,2013-04-11 19:25:00,
2013-04-11 15:30:00,61.6,52.8,30.08,ESE,113,3.4,4.5,73,0.00,,,0.05,WUHU216HW,2013-04-11 19:30:00,
2013-04-11 15:35:00,61.6,52.8,30.08,ESE,113,4.0,4.5,73,0.00,,,0.05,WUHU216HW,2013-04-11 19:35:00,
2013-04-11 15:40:00,60.8,52.2,30.08,ENE,68,4.5,4.5,73,0.00,,,0.05,WUHU216HW,2013-04-11 19:40:00,
2013-04-11 15:46:00,60.3,51.7,30.09,East,90,2.9,4.5,73,0.00,,,0.05,WUHU216HW,2013-04-11 19:46:00,
2013-04-11 15:51:00,59.8,51.1,30.09,ESE,113,1.1,3.4,73,0.00,,,0.05,WUHU216HW,2013-04-11 19:51:00,
2013-04-11 15:57:00,59.4,51.1,30.09,ESE,113,2.5,3.1,74,0.00,,,0.05,WUHU216HW,2013-04-11 19:57:00,
2013-04-11 16:02:00,58.9,50.6,30.09,SE,135,4.7,4.7,74,0.00,,,0.05,WUHU216HW,2013-04-11 20:02:00,
2013-04-11 16:07:00,58.5,50.6,30.10,SE,135,4.0,5.6,75,0.00,,,0.05,WUHU216HW,2013-04-11 20:07:00,
2013-04-11 16:12:00,58.1,50.2,30.10,ENE,68,3.6,5.6,75,0.00,,,0.05,WUHU216HW,2013-04-11 20:12:00,
2013-04-11 16:17:00,58.0,50.0,30.10,ESE,113,2.7,4.0,75,0.00,,,0.05,WUHU216HW,2013-04-11 20:17:00,
2013-04-11 16:22:00,57.8,50.2,30.10,SSW,203,3.8,4.9,76,0.00,,,0.05,WUHU216HW,2013-04-11 20:22:00,
2013-04-11 16:27:00,57.2,49.7,30.10,East,90,5.8,8.1,76,0.00,,,0.05,WUHU216HW,2013-04-11 20:27:00,
2013-04-11 16:32:00,56.9,49.3,30.10,SE,135,2.9,8.1,76,0.00,,,0.05,WUHU216HW,2013-04-11 20:32:00,
2013-04-11 16:37:00,56.9,49.3,30.10,SE,135,5.4,5.4,76,0.00,,,0.05,WUHU216HW,2013-04-11 20:37:00,
2013-04-11 16:42:00,56.5,49.0,30.10,South,180,4.5,5.4,76,0.00,,,0.05,WUHU216HW,2013-04-11 20:42:00,
2013-04-11 16:48:00,56.5,49.3,30.11,East,90,3.4,4.5,77,0.00,,,0.05,WUHU216HW,2013-04-11 20:48:00,
2013-04-11 16:53:00,56.5,49.3,30.11,ENE,68,3.8,5.1,77,0.00,,,0.05,WUHU216HW,2013-04-11 20:53:00,
2013-04-11 16:58:00,56.3,49.1,30.11,East,90,4.7,5.1,77,0.00,,,0.05,WUHU216HW,2013-04-11 20:58:00,
2013-04-11 17:03:00,56.0,48.8,30.11,SE,135,2.2,4.7,77,0.00,,,0.05,WUHU216HW,2013-04-11 21:03:00,
2013-04-11 17:08:00,55.6,48.5,30.11,SE,135,2.5,4.9,77,0.00,,,0.05,WUHU216HW,2013-04-11 21:08:00,
2013-04-11 17:13:00,55.1,48.0,30.11,SSE,158,4.0,5.6,77,0.00,,,0.05,WUHU216HW,2013-04-11 21:13:00,
2013-04-11 17:18:00,54.7,48.0,30.11,SE,135,2.7,5.6,78,0.00,,,0.05,WUHU216HW,2013-04-11 21:18:00,
2013-04-11 17:23:00,54.5,47.8,30.11,West,270,1.8,4.3,78,0.00,,,0.05,WUHU216HW,2013-04-11 21:23:00,
2013-04-11 17:28:00,54.4,47.6,30.11,ENE,68,3.8,5.1,78,0.00,,,0.05,WUHU216HW,2013-04-11 21:28:00,
2013-04-11 17:34:00,54.2,47.5,30.11,SE,135,2.2,5.1,78,0.00,,,0.05,WUHU216HW,2013-04-11 21:34:00,
2013-04-11 17:39:00,54.2,47.5,30.11,SE,135,4.7,5.1,78,0.00,,,0.05,WUHU216HW,2013-04-11 21:39:00,
2013-04-11 17:44:00,53.8,47.2,30.12,ESE,113,4.7,4.7,78,0.00,,,0.05,WUHU216HW,2013-04-11 21:44:00,
2013-04-11 17:50:00,53.6,47.0,30.12,ESE,113,3.4,5.1,78,0.00,,,0.05,WUHU216HW,2013-04-11 21:50:00,
2013-04-11 17:55:00,53.5,46.8,30.12,ESE,113,4.5,5.1,78,0.00,,,0.05,WUHU216HW,2013-04-11 21:55:00,
2013-04-11 18:00:00,53.3,47.0,30.12,ESE,113,2.9,4.5,79,0.00,,,0.05,WUHU216HW,2013-04-11 22:00:00,
2013-04-11 18:05:00,53.1,46.8,30.11,SE,135,2.9,6.3,79,0.00,,,0.05,WUHU216HW,2013-04-11 22:05:00,
2013-04-11 18:10:00,52.9,46.6,30.12,SE,135,2.7,6.3,79,0.00,,,0.05,WUHU216HW,2013-04-11 22:10:00,
2013-04-11 18:15:00,52.9,46.6,30.12,SE,135,5.6,5.6,79,0.00,,,0.05,WUHU216HW,2013-04-11 22:15:00,
2013-04-11 18:20:00,52.6,46.3,30.12,ESE,113,1.3,5.6,79,0.00,,,0.05,WUHU216HW,2013-04-11 22:20:00,
2013-04-11 18:25:00,52.6,46.3,30.13,North,0,1.1,3.4,79,0.00,,,0.05,WUHU216HW,2013-04-11 22:25:00,
2013-04-11 18:30:00,52.2,45.9,30.13,ESE,113,1.6,3.4,79,0.00,,,0.05,WUHU216HW,2013-04-11 22:30:00,
2013-04-11 18:35:00,51.8,45.9,30.13,North,0,2.2,3.8,80,0.00,,,0.05,WUHU216HW,2013-04-11 22:35:00,
2013-04-11 18:41:00,51.8,45.9,30.13,East,90,2.0,3.8,80,0.00,,,0.05,WUHU216HW,2013-04-11 22:41:00,
2013-04-11 18:46:00,51.7,45.7,30.12,ESE,113,2.0,3.4,80,0.00,,,0.05,WUHU216HW,2013-04-11 22:46:00,
2013-04-11 18:51:00,51.5,45.5,30.12,SE,135,3.4,4.0,80,0.00,,,0.05,WUHU216HW,2013-04-11 22:51:00,
2013-04-11 18:57:00,50.9,45.3,30.12,SE,135,6.0,6.0,81,0.00,,,0.05,WUHU216HW,2013-04-11 22:57:00,
2013-04-11 19:02:00,50.8,45.1,30.12,SSE,158,1.3,6.9,81,0.00,,,0.05,WUHU216HW,2013-04-11 23:02:00,
2013-04-11 19:07:00,50.6,45.3,30.12,SSE,158,3.1,6.9,82,0.00,,,0.05,WUHU216HW,2013-04-11 23:07:00,
2013-04-11 19:12:00,50.4,45.1,30.12,NE,45,2.2,4.9,82,0.00,,,0.05,WUHU216HW,2013-04-11 23:12:00,
2013-04-11 19:17:00,50.2,44.9,30.12,ENE,68,2.7,4.9,82,0.00,,,0.05,WUHU216HW,2013-04-11 23:17:00,
2013-04-11 19:22:00,50.0,44.7,30.12,SE,135,0.7,2.9,82,0.00,,,0.05,WUHU216HW,2013-04-11 23:22:00,
2013-04-11 19:27:00,50.0,44.7,30.12,South,180,7.2,7.2,82,0.00,,,0.05,WUHU216HW,2013-04-11 23:27:00,
2013-04-11 19:33:00,49.9,44.6,30.13,ESE,113,3.8,7.2,82,0.00,,,0.05,WUHU216HW,2013-04-11 23:33:00,
2013-04-11 19:38:00,49.7,44.4,30.13,ESE,113,5.6,6.0,82,0.00,,,0.05,WUHU216HW,2013-04-11 23:38:00,
2013-04-11 19:43:00,49.3,44.3,30.13,SE,135,3.8,6.0,83,0.00,,,0.05,WUHU216HW,2013-04-11 23:43:00,
2013-04-11 19:48:00,49.3,44.3,30.12,ESE,113,3.6,5.6,83,0.00,,,0.05,WUHU216HW,2013-04-11 23:48:00,
2013-04-11 19:54:00,49.1,44.1,30.13,ESE,113,4.5,6.3,83,0.00,,,0.05,WUHU216HW,2013-04-11 23:54:00,
2013-04-11 19:59:00,49.1,44.1,30.13,SE,135,5.1,6.3,83,0.00,,,0.05,WUHU216HW,2013-04-11 23:59:00,
2013-04-11 20:04:00,49.0,44.0,30.12,SE,135,3.4,5.1,83,0.00,,,0.05,WUHU216HW,2013-04-12 00:04:00,
2013-04-11 20:09:00,48.8,43.8,30.12,ESE,113,1.3,5.1,83,0.00,,,0.05,WUHU216HW,2013-04-12 00:09:00,
2013-04-11 20:14:00,48.8,43.8,30.12,East,90,2.9,3.6,83,0.00,,,0.05,WUHU216HW,2013-04-12 00:14:00,
2013-04-11 20:19:00,48.8,43.8,30.12,SE,135,2.7,3.6,83,0.00,,,0.05,WUHU216HW,2013-04-12 00:19:00,
2013-04-11 21:39:00,47.9,43.6,30.13,NE,45,8.5,8.5,85,0.00,,,0.05,WUHU216HW,2013-04-12 01:39:00,
2013-04-11 21:44:00,47.9,43.6,30.14,East,90,3.1,8.5,85,0.00,,,0.05,WUHU216HW,2013-04-12 01:44:00,
2013-04-11 21:52:00,47.9,43.6,30.14,North,0,1.1,8.5,85,0.00,,,0.05,WUHU216HW,2013-04-12 01:52:00,
2013-04-11 21:57:00,47.9,43.6,30.14,East,90,5.4,5.4,85,0.00,,,0.05,WUHU216HW,2013-04-12 01:57:00,
2013-04-11 22:02:00,48.1,43.7,30.13,ESE,113,5.8,5.8,85,0.00,,,0.05,WUHU216HW,2013-04-12 02:02:00,
2013-04-11 22:07:00,48.1,43.7,30.14,ESE,113,1.8,5.8,85,0.00,,,0.05,WUHU216HW,2013-04-12 02:07:00,
2013-04-11 22:12:00,47.9,43.6,30.14,East,90,2.5,5.8,85,0.00,,,0.05,WUHU216HW,2013-04-12 02:12:00,
2013-04-11 22:17:00,47.9,43.6,30.14,NE,45,8.5,8.5,85,0.00,,,0.05,WUHU216HW,2013-04-12 02:17:00,
2013-04-11 22:22:00,47.9,43.6,30.14,East,90,4.5,8.5,85,0.00,,,0.05,WUHU216HW,2013-04-12 02:22:00,
2013-04-11 22:27:00,47.9,43.6,30.14,ESE,113,1.8,4.5,85,0.00,,,0.05,WUHU216HW,2013-04-12 02:27:00,
2013-04-11 22:33:00,47.9,43.6,30.14,NE,45,5.8,5.8,85,0.00,,,0.05,WUHU216HW,2013-04-12 02:33:00,
2013-04-11 22:38:00,47.9,43.6,30.14,ENE,68,4.0,5.8,85,0.00,,,0.05,WUHU216HW,2013-04-12 02:38:00,
2013-04-11 22:44:00,47.9,43.6,30.13,ESE,113,1.1,7.6,85,0.00,,,0.05,WUHU216HW,2013-04-12 02:44:00,
2013-04-11 22:49:00,47.7,43.4,30.13,NNW,338,4.0,7.6,85,0.00,,,0.05,WUHU216HW,2013-04-12 02:49:00,
2013-04-11 22:54:00,47.7,43.4,30.13,ENE,68,2.2,4.0,85,0.00,,,0.05,WUHU216HW,2013-04-12 02:54:00,
2013-04-11 22:59:00,47.7,43.4,30.13,East,90,0.9,6.3,85,0.00,,,0.05,WUHU216HW,2013-04-12 02:59:00,
2013-04-11 23:05:00,47.5,43.2,30.13,East,90,3.4,6.3,85,0.00,,,0.05,WUHU216HW,2013-04-12 03:05:00,
2013-04-11 23:10:00,47.5,43.2,30.14,ENE,68,4.5,5.8,85,0.00,,,0.05,WUHU216HW,2013-04-12 03:10:00,
2013-04-11 23:16:00,47.5,43.2,30.14,ESE,113,1.8,5.8,85,0.00,,,0.05,WUHU216HW,2013-04-12 03:16:00,
2013-04-11 23:21:00,47.5,43.2,30.15,East,90,4.0,8.3,85,0.00,,,0.05,WUHU216HW,2013-04-12 03:21:00,
2013-04-11 23:27:00,47.5,43.2,30.14,ENE,68,7.8,8.3,85,0.00,,,0.05,WUHU216HW,2013-04-12 03:27:00,
2013-04-11 23:32:00,47.5,43.2,30.14,NNE,23,2.9,7.8,85,0.00,,,0.05,WUHU216HW,2013-04-12 03:32:00,
2013-04-11 23:37:00,47.3,43.0,30.13,ESE,113,3.1,6.5,85,0.00,,,0.05,WUHU216HW,2013-04-12 03:37:00,
2013-04-11 23:42:00,47.3,43.0,30.13,NE,45,6.3,6.3,85,0.00,,,0.05,WUHU216HW,2013-04-12 03:42:00,
2013-04-11 23:47:00,47.3,43.0,30.13,ENE,68,1.8,8.5,85,0.00,,,0.05,WUHU216HW,2013-04-12 03:47:00,
2013-04-11 23:52:00,47.3,43.0,30.12,NE,45,3.1,8.5,85,0.00,,,0.05,WUHU216HW,2013-04-12 03:52:00,
2013-04-11 23:58:00,47.2,42.9,30.12,ESE,113,6.3,6.3,85,0.00,,,0.05,WUHU216HW,2013-04-12 03:58:00,